SCP
0 0 0 0 0 0 0 0 0 0 0 0 -0 0 0 -0 -0 0 0 0 0 0 0 0 0 0 0 0 0 0 0 0 0 0 -0 -0 -0 -0 -0 -0 -0 0 0
0 0 0 0 0 0 0 0 0 0 0 0 0 0 -0 0 0 0 0 0 0 0 0 0 0 0 0 0 0 0 0 0 0 0 0 0 0 0 0 0 0 0 0
0 0 0 0 0 0 0 0 0 -0 -0 -0 -0 0 0 0 0 0 0 0 0 0 0 0 0 0 0 0 0 0 0 0 0 0 0 0 0 0 0 0 0 0 0
0 0 0 0 0 0 0 0 0 0 0 0 0 0 0 0 0 0 0 0 0 0 0 0 0 0 0 0 0 0 0 0 0 0 0 0 0 0 0 0 0 0 0
0 0 0 0 0 0 0 0 0 0 0 0 0 0 0 0 0 0 0 0 0 0 0 0 0 0 0 0 0 0 0 0 0 0 0 0 0 0 0 0 0 0 0
0 0 0 0 0 0 0 0 0 0 0 0 0 0 0 0 0 0 0 0 0 0 0 0 0 0 0 0 0 0 0 0 0 0 0 0 0 0 0 0 0 0 0
0 0 0 0 0 0 0 0 0 0 0 0 0 0 0 0 0 0 0 0 0 0 0 0 0 0 0 0 0 0 0 0 0 0 0 0 0 0 0 0 0 0 0
0 0 0 0 0 0 0 0 0 0 0 0 0 0 0 0 0 0 0 0 0 0 0 0 0 0 0 0 0 0 0 0 0 0 0 0 0 0 0 0 0 0 0
0 0 0 0 0 0 0 0 0 0 0 0 0 0 0 0 0 0 0 0 0 0 0 0 0 0 0 0 0 0 0 0 0 0 0 0 0 0 0 0 0 0 0
0 0 0 0 0 0 0 0 0 0 0 0 0 0 0 0 0 0 0 0 0 0 0 0 0 0 0 0 0 0 0 0 0 0 0 0 0 0 0 0 0 0 0
0 0 0 0 0 0 0 0 0 0 0 0 0 0 0 0 0 0 0 0 0 0 0 0 0 0 0 0 0 0 0 0 0 0 0 0 0 0 0 0 0 0 0
0 0 0 0 0 0 0 0 0 0 0 0 0 0 0 0 0 0 0 0 0 0 0 0 0 0 0 0 0 0 0 0 0 0 0 0 0 0 0 0 0 0 0
0 0 0 0 0 0 0 0 0 0 0 0 0 0 0 0 0 0 0 0 0 0 0 0 0 0 0 0 0 0 0 0 0 0 0 0 0 0 0 0 0 0 0
0 0 0 0 0 0 0 0 0 0 0 0 0 0 0 0 0 0 0 0 0 0 0 0 0 0 0 0 0 0 0 0 0 0 0 0 0 0 0 0 0 0 0
0 0 0 0 0 0 0 0 0 0 0 0 0 0 0 0 0 0 0 0 0 0 0 0 0 0 0 0 0 0 0 0 0 0 0 0 0 0 0 0 0 0 0
0 0 0 0 0 0 0 0 0 0 0 0 0 0 0 0 0 0 0 0 0 0 0 0 0 0 0 0 0 0 0 0 0 0 0 0 0 0 0 0 0 0 0
0 0 0 0 0 0 0 0 0 0 0 0 0 0 0 0 0 0 0 0 0 0 0 0 0 0 0 0 0 0 0 0 0 0 0 0 0 0 0 0 0 0 0
0 0 0 0 0 0 0 0 0 0 0 0 0 0 0 0 0 0 0 0 0 0 0 0 0 0 0 0 0 0 0 0 0 0 0 0 0 0 0 0 0 0 0
0 0 0 0 0 0 0 0 0 0 0 0 0 0 0 0 0 0 0 0 0 0 0 0 0 0 0 0 0 0 0 0 0 0 0 0 0 0 0 0 0 0 0
0 0 0 0 0 0 0 0 0 0 0 0 0 0 0 0 0 0 0 0 0 0 0 0 0 0 0 0 0 0 0 0 0 0 0 0 0 0 0 0 0 0 0
0 0 0 0 0 0 0 0 0 0 0 0 0 0 0 0 0 0 0 0 0 0 0 0 0 0 0 0 0 0 0 0 0 0 0 0 0 0 0 0 0 0 0
0 0 0 0 0 0 0 0 0 0 0 0 0 0 0 0 0 0 0 0 0 0 0 0 0 0 0 0 0 0 0 0 0 0 0 0 0 0 0 0 0 0 0
0 0 0 0 0 0 0 0 0 0 0 0 0 0 0 0 0 0 0 0 0 0 0 0 0 0 0 0 0 0 0 0 0 0 0 0 0 0 0 0 0 0 0
0 0 0 0 0 0 0 0 0 0 0 0 0 0 0 0 0 0 0 0 0 0 0 0 0 0 0 0 0 0 0 0 0 0 0 0 0 0 0 0 0 0 0
0 0 0 0 0 0 0 0 0 0 0 0 0 0 0 0 0 0 0 0 0 0 0 0 0 0 0 0 0 0 0 0 0 0 0 0 0 0 0 0 0 0 0
0 0 0 0 0 0 0 0 0 0 0 0 0 0 0 0 0 0 0 0 0 0 0 0 0 0 0 0 0 0 0 0 0 0 0 0 0 0 0 0 0 0 0
Wind_Speed_500mb
4 5 12 14 17 16 15 18 20 18 17 21 18 10 7 11 10 4 6 11 13 15 16 16 15 16 15 14 11 9 9 9 11 11 13 15 18 11 2 4 6 6 2
6 4 12 12 14 15 16 15 14 17 21 17 8 10 9 7 6 6 9 11 14 16 16 16 16 14 13 11 9 8 7 4 5 6 7 10 7 12 12 7 7 0 3
15 8 8 10 14 16 16 20 22 18 11 2 11 16 15 13 8 7 8 11 14 16 18 18 17 16 15 13 12 10 7 5 2 1 6 12 19 8 11 13 12 10 9
13 12 8 10 15 20 25 19 11 6 7 10 15 12 8 8 7 7 10 12 13 15 15 17 17 16 15 14 13 10 8 8 6 4 2 2 12 17 13 15 15 14 13
11 12 8 8 18 23 22 16 8 6 5 8 10 12 14 12 11 10 12 13 14 15 16 16 16 15 14 14 14 13 11 9 7 8 9 11 2 23 18 19 21 19 18
13 14 14 14 20 23 16 11 8 7 4 4 3 7 13 13 10 9 11 13 13 14 15 16 16 15 15 15 13 12 12 12 11 9 11 11 21 23 22 20 20 19 21
16 16 19 23 19 18 14 10 10 9 10 6 2 9 12 13 12 9 9 12 15 16 17 17 17 17 16 16 15 14 12 12 13 14 12 11 20 19 21 18 17 17 18
25 20 20 23 18 11 13 12 15 16 14 9 10 8 11 10 11 12 13 14 16 17 19 19 18 19 19 17 17 16 14 13 13 14 14 16 15 18 21 20 18 17 17
21 19 16 19 13 13 13 17 16 15 16 12 13 8 7 6 10 13 12 15 16 17 19 20 21 21 21 21 20 18 17 15 15 13 12 18 15 17 20 20 19 18 18
18 19 27 13 13 12 15 13 15 15 19 13 10 11 8 9 9 15 16 16 18 19 21 22 23 23 23 22 21 20 18 14 15 13 16 15 14 16 18 18 16 17 18
18 19 19 14 17 12 15 14 12 11 13 9 11 12 16 12 11 15 17 18 20 21 23 24 24 24 24 22 20 20 19 16 16 14 17 14 14 14 16 15 14 17 18
22 20 20 16 20 21 18 14 11 13 11 13 13 13 18 17 15 16 18 20 22 24 24 26 26 25 24 23 22 19 18 17 16 16 18 14 14 13 14 12 12 17 18
28 26 24 23 26 23 20 20 19 17 19 19 19 19 18 17 18 19 21 24 24 25 27 26 26 25 22 22 19 18 16 16 17 17 17 14 12 8 7 1 11 15 13
22 26 27 27 25 23 21 22 22 20 20 20 21 20 20 20 21 21 22 23 24 24 25 27 27 25 24 22 21 19 17 17 17 18 19 15 12 5 7 13 14 16 18
14 16 21 23 24 24 24 23 24 23 23 24 24 23 23 22 22 22 22 23 25 26 26 27 28 26 24 22 20 20 19 18 18 17 21 16 14 13 11 11 15 15 18
16 18 23 26 26 26 28 27 28 27 28 28 28 27 25 25 24 24 24 24 25 26 26 26 25 24 22 19 20 20 20 20 18 15 15 13 11 9 10 7 10 14 18
13 16 21 27 30 28 29 31 31 31 30 31 31 29 27 27 25 24 24 25 26 26 25 25 24 22 20 19 19 19 19 19 16 14 15 14 12 9 2 4 11 15 17
24 27 27 30 34 34 34 34 33 34 32 34 34 33 32 30 28 28 27 27 26 25 25 25 24 21 19 19 19 20 20 18 16 14 17 16 13 8 4 6 13 17 21
24 26 28 31 37 39 40 40 38 37 36 37 37 37 37 35 32 31 30 29 28 27 27 26 26 24 21 20 21 21 20 19 18 13 13 13 14 8 5 9 16 21 27
27 29 32 34 36 39 44 44 43 42 39 39 39 41 41 39 37 35 34 32 29 28 28 28 27 26 24 22 21 22 22 21 23 22 6 16 18 15 9 14 24 33 34
29 32 34 35 34 38 42 45 44 43 40 39 40 43 42 41 40 38 36 34 31 29 28 28 26 25 24 23 22 19 24 24 26 28 34 17 18 22 23 21 28 36 41
31 32 32 30 29 31 36 35 30 26 29 32 37 41 43 43 42 40 39 37 34 30 27 25 22 21 22 21 17 17 9 20 21 31 32 27 29 23 30 33 39 42 46
33 35 33 32 29 27 31 37 42 43 42 40 41 41 42 42 43 42 40 37 35 32 28 26 24 22 19 22 18 12 8 7 13 20 23 28 31 35 32 38 47 52 50
37 37 37 34 31 29 29 34 36 34 29 28 28 40 43 42 42 41 39 38 37 35 33 31 30 28 26 21 25 21 22 28 11 13 20 25 36 40 42 49 50 50 51
40 41 41 39 37 34 32 34 38 40 37 32 39 42 43 44 44 45 43 43 40 38 36 33 32 30 29 27 26 25 27 28 29 30 28 32 29 35 41 45 59 51 51
40 44 45 44 42 39 37 38 41 43 40 41 42 44 43 44 45 46 44 43 40 37 34 33 31 30 29 30 30 30 31 25 21 25 33 39 45 53 49 49 58 54 52
Wind_Direction_500mb
148 189 189 181 179 174 172 169 170 169 155 146 142 156 245 255 285 351 348 355 354 360 4 6 4 2 360 358 5 18 30 53 66 75 70 73 60 46 75 117 110 59 106
137 189 189 183 181 175 175 177 170 156 138 137 174 220 254 314 311 308 321 337 341 346 354 357 355 354 352 347 345 343 349 35 79 86 48 37 27 11 4 343 290 245 7
143 176 197 184 179 172 168 149 134 123 117 42 328 325 319 308 285 300 314 327 328 336 343 347 351 354 352 350 341 336 327 324 333 109 88 12 317 279 301 330 342 335 288
140 157 182 183 166 162 155 149 140 106 80 27 343 302 297 294 288 301 307 312 318 329 337 340 344 347 350 349 346 340 326 312 297 261 19 78 345 296 282 299 299 298 294
165 168 188 184 169 167 168 168 163 149 96 61 36 341 323 312 306 299 301 308 320 332 336 336 340 341 344 343 345 341 337 323 302 280 284 267 309 291 302 296 297 293 290
171 164 169 179 182 184 186 201 207 232 234 187 111 328 321 311 297 299 304 313 320 326 327 331 332 337 337 335 335 333 332 324 311 295 281 293 268 295 301 301 297 288 279
184 177 165 178 171 193 207 232 241 261 273 273 288 287 282 302 298 297 313 321 328 331 329 328 328 329 330 328 328 324 321 312 308 305 298 278 290 301 303 309 306 300 291
184 190 194 185 215 236 264 255 269 277 275 278 282 277 282 291 299 306 312 314 316 320 323 323 324 325 324 325 326 325 324 315 301 296 294 288 296 294 298 303 304 300 293
186 189 212 247 238 250 248 270 266 263 262 264 277 273 281 293 308 309 312 316 315 318 319 321 322 322 321 324 324 322 320 316 307 301 287 275 296 290 296 303 307 303 299
218 224 244 220 235 249 277 268 275 282 271 271 275 280 285 286 298 304 308 311 312 316 317 317 318 318 318 319 319 319 314 310 301 297 286 292 288 288 295 306 308 306 307
225 242 252 244 264 274 283 282 294 292 288 259 255 283 289 287 294 299 303 308 311 313 315 316 317 317 319 318 320 317 314 316 304 299 287 299 291 290 296 302 305 302 306
239 244 253 275 286 287 290 295 293 282 264 258 276 279 278 287 292 295 301 307 311 315 316 315 316 317 318 318 318 316 319 313 304 300 297 299 298 297 300 303 294 300 318
241 258 270 280 288 292 290 285 276 272 265 266 266 267 272 279 287 297 303 308 313 316 317 319 318 319 319 316 314 314 309 302 297 295 293 293 288 304 5 350 296 316 319
254 261 274 280 283 279 280 275 269 267 269 270 268 271 275 276 282 291 299 305 311 314 317 320 319 317 315 314 312 312 306 296 290 287 286 279 277 214 199 282 306 320 329
241 253 268 276 277 273 269 266 267 270 270 271 271 272 272 276 282 291 299 305 310 314 318 318 317 316 313 312 310 308 302 296 291 283 280 278 269 255 276 302 314 330 337
268 270 273 278 280 280 278 273 272 271 271 270 270 269 271 276 283 289 298 305 309 314 316 314 313 310 308 308 305 302 298 294 286 272 267 260 261 263 284 312 344 347 346
267 276 274 278 279 277 275 274 273 271 269 269 269 269 269 271 277 285 292 299 303 306 308 311 310 305 303 303 300 297 292 286 272 255 241 253 253 260 270 358 2 359 359
277 276 272 276 276 275 272 272 273 273 271 270 270 270 270 272 277 282 287 290 293 299 303 305 303 299 295 293 293 290 287 274 254 235 243 240 234 222 204 10 359 354 349
290 290 288 282 277 272 268 266 267 270 269 268 268 267 267 267 269 273 278 282 290 297 302 304 302 299 294 294 294 290 282 270 235 235 227 225 209 210 277 301 340 346 344
301 299 295 290 281 271 263 262 263 265 267 269 269 267 267 266 268 270 274 280 287 292 298 302 304 302 297 291 291 285 278 268 245 232 259 237 229 236 311 316 334 338 337
310 309 304 294 280 268 262 257 257 262 266 266 270 268 266 266 267 269 273 277 280 285 292 299 304 303 297 293 297 299 291 275 256 245 241 264 254 259 264 320 315 328 327
320 320 317 309 295 271 261 254 248 253 251 264 270 273 269 267 266 266 267 270 274 279 284 291 300 305 300 296 288 298 292 286 270 255 249 260 254 281 270 288 312 312 316
329 330 328 323 311 286 267 257 256 257 263 270 271 273 272 268 266 264 265 266 270 274 278 284 290 295 295 296 289 265 281 259 283 276 261 270 255 283 275 284 299 305 309
334 335 333 330 321 305 284 269 261 261 267 272 261 273 275 270 265 263 263 265 268 271 274 277 280 281 281 278 282 278 254 258 270 281 267 292 286 282 280 285 292 300 305
338 337 335 332 326 314 296 278 266 264 262 260 268 272 272 270 265 263 263 265 267 270 274 276 278 280 279 276 269 264 277 273 266 255 275 269 259 274 290 290 294 299 305
336 336 333 329 324 316 303 289 276 267 264 265 269 270 269 268 266 264 264 266 269 270 273 276 278 279 280 280 279 274 270 260 256 263 267 273 276 276 286 286 294 299 302
Wind_Speed_850mb
4 5 12 14 17 16 15 18 20 18 17 21 18 10 7 11 10 4 6 11 13 15 16 16 15 16 15 14 11 9 9 9 11 11 13 15 18 11 2 4 6 6 2
6 4 12 12 14 15 16 15 14 17 21 17 8 10 9 7 6 6 9 11 14 16 16 16 16 14 13 11 9 8 7 4 5 6 7 10 7 12 12 7 7 0 3
15 8 8 10 14 16 16 20 22 18 11 2 11 16 15 13 8 7 8 11 14 16 18 18 17 16 15 13 12 10 7 5 2 1 6 12 19 8 11 13 12 10 9
13 12 8 10 15 20 25 19 11 6 7 10 15 12 8 8 7 7 10 12 13 15 15 17 17 16 15 14 13 10 8 8 6 4 2 2 12 17 13 15 15 14 13
11 12 8 8 18 23 22 16 8 6 5 8 10 12 14 12 11 10 12 13 14 15 16 16 16 15 14 14 14 13 11 9 7 8 9 11 2 23 18 19 21 19 18
13 14 14 14 20 23 16 11 8 7 4 4 3 7 13 13 10 9 11 13 13 14 15 16 16 15 15 15 13 12 12 12 11 9 11 11 21 23 22 20 20 19 21
16 16 19 23 19 18 14 10 10 9 10 6 2 9 12 13 12 9 9 12 15 16 17 17 17 17 16 16 15 14 12 12 13 14 12 11 20 19 21 18 17 17 18
25 20 20 23 18 11 13 12 15 16 14 9 10 8 11 10 11 12 13 14 16 17 19 19 18 19 19 17 17 16 14 13 13 14 14 16 15 18 21 20 18 17 17
21 19 16 19 13 13 13 17 16 15 16 12 13 8 7 6 10 13 12 15 16 17 19 20 21 21 21 21 20 18 17 15 15 13 12 18 15 17 20 20 19 18 18
18 19 27 13 13 12 15 13 15 15 19 13 10 11 8 9 9 15 16 16 18 19 21 22 23 23 23 22 21 20 18 14 15 13 16 15 14 16 18 18 16 17 18
18 19 19 14 17 12 15 14 12 11 13 9 11 12 16 12 11 15 17 18 20 21 23 24 24 24 24 22 20 20 19 16 16 14 17 14 14 14 16 15 14 17 18
22 20 20 16 20 21 18 14 11 13 11 13 13 13 18 17 15 16 18 20 22 24 24 26 26 25 24 23 22 19 18 17 16 16 18 14 14 13 14 12 12 17 18
28 26 24 23 26 23 20 20 19 17 19 19 19 19 18 17 18 19 21 24 24 25 27 26 26 25 22 22 19 18 16 16 17 17 17 14 12 8 7 1 11 15 13
22 26 27 27 25 23 21 22 22 20 20 20 21 20 20 20 21 21 22 23 24 24 25 27 27 25 24 22 21 19 17 17 17 18 19 15 12 5 7 13 14 16 18
14 16 21 23 24 24 24 23 24 23 23 24 24 23 23 22 22 22 22 23 25 26 26 27 28 26 24 22 20 20 19 18 18 17 21 16 14 13 11 11 15 15 18
16 18 23 26 26 26 28 27 28 27 28 28 28 27 25 25 24 24 24 24 25 26 26 26 25 24 22 19 20 20 20 20 18 15 15 13 11 9 10 7 10 14 18
13 16 21 27 30 28 29 31 31 31 30 31 31 29 27 27 25 24 24 25 26 26 25 25 24 22 20 19 19 19 19 19 16 14 15 14 12 9 2 4 11 15 17
24 27 27 30 34 34 34 34 33 34 32 34 34 33 32 30 28 28 27 27 26 25 25 25 24 21 19 19 19 20 20 18 16 14 17 16 13 8 4 6 13 17 21
24 26 28 31 37 39 40 40 38 37 36 37 37 37 37 35 32 31 30 29 28 27 27 26 26 24 21 20 21 21 20 19 18 13 13 13 14 8 5 9 16 21 27
27 29 32 34 36 39 44 44 43 42 39 39 39 41 41 39 37 35 34 32 29 28 28 28 27 26 24 22 21 22 22 21 23 22 6 16 18 15 9 14 24 33 34
29 32 34 35 34 38 42 45 44 43 40 39 40 43 42 41 40 38 36 34 31 29 28 28 26 25 24 23 22 19 24 24 26 28 34 17 18 22 23 21 28 36 41
31 32 32 30 29 31 36 35 30 26 29 32 37 41 43 43 42 40 39 37 34 30 27 25 22 21 22 21 17 17 9 20 21 31 32 27 29 23 30 33 39 42 46
33 35 33 32 29 27 31 37 42 43 42 40 41 41 42 42 43 42 40 37 35 32 28 26 24 22 19 22 18 12 8 7 13 20 23 28 31 35 32 38 47 52 50
37 37 37 34 31 29 29 34 36 34 29 28 28 40 43 42 42 41 39 38 37 35 33 31 30 28 26 21 25 21 22 28 11 13 20 25 36 40 42 49 50 50 51
40 41 41 39 37 34 32 34 38 40 37 32 39 42 43 44 44 45 43 43 40 38 36 33 32 30 29 27 26 25 27 28 29 30 28 32 29 35 41 45 59 51 51
40 44 45 44 42 39 37 38 41 43 40 41 42 44 43 44 45 46 44 43 40 37 34 33 31 30 29 30 30 30 31 25 21 25 33 39 45 53 49 49 58 54 52
Wind_Direction_850mb
148 189 189 181 179 174 172 169 170 169 155 146 142 156 245 255 285 351 348 355 354 360 4 6 4 2 360 358 5 18 30 53 66 75 70 73 60 46 75 117 110 59 106
137 189 189 183 181 175 175 177 170 156 138 137 174 220 254 314 311 308 321 337 341 346 354 357 355 354 352 347 345 343 349 35 79 86 48 37 27 11 4 343 290 245 7
143 176 197 184 179 172 168 149 134 123 117 42 328 325 319 308 285 300 314 327 328 336 343 347 351 354 352 350 341 336 327 324 333 109 88 12 317 279 301 330 342 335 288
140 157 182 183 166 162 155 149 140 106 80 27 343 302 297 294 288 301 307 312 318 329 337 340 344 347 350 349 346 340 326 312 297 261 19 78 345 296 282 299 299 298 294
165 168 188 184 169 167 168 168 163 149 96 61 36 341 323 312 306 299 301 308 320 332 336 336 340 341 344 343 345 341 337 323 302 280 284 267 309 291 302 296 297 293 290
171 164 169 179 182 184 186 201 207 232 234 187 111 328 321 311 297 299 304 313 320 326 327 331 332 337 337 335 335 333 332 324 311 295 281 293 268 295 301 301 297 288 279
184 177 165 178 171 193 207 232 241 261 273 273 288 287 282 302 298 297 313 321 328 331 329 328 328 329 330 328 328 324 321 312 308 305 298 278 290 301 303 309 306 300 291
184 190 194 185 215 236 264 255 269 277 275 278 282 277 282 291 299 306 312 314 316 320 323 323 324 325 324 325 326 325 324 315 301 296 294 288 296 294 298 303 304 300 293
186 189 212 247 238 250 248 270 266 263 262 264 277 273 281 293 308 309 312 316 315 318 319 321 322 322 321 324 324 322 320 316 307 301 287 275 296 290 296 303 307 303 299
218 224 244 220 235 249 277 268 275 282 271 271 275 280 285 286 298 304 308 311 312 316 317 317 318 318 318 319 319 319 314 310 301 297 286 292 288 288 295 306 308 306 307
225 242 252 244 264 274 283 282 294 292 288 259 255 283 289 287 294 299 303 308 311 313 315 316 317 317 319 318 320 317 314 316 304 299 287 299 291 290 296 302 305 302 306
239 244 253 275 286 287 290 295 293 282 264 258 276 279 278 287 292 295 301 307 311 315 316 315 316 317 318 318 318 316 319 313 304 300 297 299 298 297 300 303 294 300 318
241 258 270 280 288 292 290 285 276 272 265 266 266 267 272 279 287 297 303 308 313 316 317 319 318 319 319 316 314 314 309 302 297 295 293 293 288 304 5 350 296 316 319
254 261 274 280 283 279 280 275 269 267 269 270 268 271 275 276 282 291 299 305 311 314 317 320 319 317 315 314 312 312 306 296 290 287 286 279 277 214 199 282 306 320 329
241 253 268 276 277 273 269 266 267 270 270 271 271 272 272 276 282 291 299 305 310 314 318 318 317 316 313 312 310 308 302 296 291 283 280 278 269 255 276 302 314 330 337
268 270 273 278 280 280 278 273 272 271 271 270 270 269 271 276 283 289 298 305 309 314 316 314 313 310 308 308 305 302 298 294 286 272 267 260 261 263 284 312 344 347 346
267 276 274 278 279 277 275 274 273 271 269 269 269 269 269 271 277 285 292 299 303 306 308 311 310 305 303 303 300 297 292 286 272 255 241 253 253 260 270 358 2 359 359
277 276 272 276 276 275 272 272 273 273 271 270 270 270 270 272 277 282 287 290 293 299 303 305 303 299 295 293 293 290 287 274 254 235 243 240 234 222 204 10 359 354 349
290 290 288 282 277 272 268 266 267 270 269 268 268 267 267 267 269 273 278 282 290 297 302 304 302 299 294 294 294 290 282 270 235 235 227 225 209 210 277 301 340 346 344
301 299 295 290 281 271 263 262 263 265 267 269 269 267 267 266 268 270 274 280 287 292 298 302 304 302 297 291 291 285 278 268 245 232 259 237 229 236 311 316 334 338 337
310 309 304 294 280 268 262 257 257 262 266 266 270 268 266 266 267 269 273 277 280 285 292 299 304 303 297 293 297 299 291 275 256 245 241 264 254 259 264 320 315 328 327
320 320 317 309 295 271 261 254 248 253 251 264 270 273 269 267 266 266 267 270 274 279 284 291 300 305 300 296 288 298 292 286 270 255 249 260 254 281 270 288 312 312 316
329 330 328 323 311 286 267 257 256 257 263 270 271 273 272 268 266 264 265 266 270 274 278 284 290 295 295 296 289 265 281 259 283 276 261 270 255 283 275 284 299 305 309
334 335 333 330 321 305 284 269 261 261 267 272 261 273 275 270 265 263 263 265 268 271 274 277 280 281 281 278 282 278 254 258 270 281 267 292 286 282 280 285 292 300 305
338 337 335 332 326 314 296 278 266 264 262 260 268 272 272 270 265 263 263 265 267 270 274 276 278 280 279 276 269 264 277 273 266 255 275 269 259 274 290 290 294 299 305
336 336 333 329 324 316 303 289 276 267 264 265 269 270 269 268 266 264 264 266 269 270 273 276 278 279 280 280 279 274 270 260 256 263 267 273 276 276 286 286 294 299 302